Terminal Aerodrome Forecast
Issued by NWS Sioux Falls, SD

Home | Current Version | Previous Version | Text Only | Print | Product List | Glossary On
Versions: 1 2 3 4 5 6 7 8 9 10 11 12 13 14 15 16 17 18 19
000
FTUS43 KFSD 221143 AAB
TAFFSD
TAF AMD
KFSD 221143Z 2212/2312 08006KT P6SM FEW015
     FM221600 10009KT P6SM SCT035
     FM222100 10010KT P6SM SCT250
     FM230400 11006KT P6SM SCT200=

USA.gov is the U.S. government's official web portal to all federal, state and local government web resources and services.